Flag for U.S.A. Weather past 2 weeks in Arlington, Texas, U.S.A.

Now
83 °F

Clear.


Feels Like: 86 °F
Forecast: 77 / 93 °F
Wind: 7 mph from South

Location: Arlington Municipal Airport

Current Time: Jul 4, 2015 at 12:44:52 AM

Latest Report: Jul 3, 2015 at 11:53 PM


Visibility: 10 mi

Pressure: 29.91 "Hg

Humidity: 63%

Dew point: 69 °F

Location of ArlingtonLocation

Historic Weather in Arlington — Graph

°F

Arlington temperature yesterday

Maximum temperature yesterday: 91 °F (at 1:53 PM)
Minimum temperature yesterday: 79 °F (at 4:53 AM)
Average temperature yesterday: 85 °F

Past Weeks' High & Low Weather Summary

 TemperatureHumidityPressure
High95 °F (Jun 25, 3:53 PM)88% (Jun 22, 7:53 AM)30.15 "Hg (Jun 22, 7:53 AM)
Low68 °F (Jun 28, 5:53 AM)28% (Jun 28, 2:53 PM)29.84 "Hg (Jul 2, 7:53 PM)
Average83 °F63%29.98 "Hg
* Reported Jun 18 10:53 PM — Jul 3 10:53 PM, Arlington, Weather by CustomWeather, © 2015

Note: Actual official high and low records may vary slightly from our data, if they occured in-between our weather recording intervals... More about our weather records

Advertising

Arlington weather history for previous 24 hours

 ConditionsComfort  
Time TempWeatherWind HumidityBarometerVisibility
10:53 PM
Fri, Jul 3
84 °FClear.6 mph59%29.90 "Hg10 mi
9:53 PM85 °FClear.6 mph57%29.89 "Hg10 mi
8:53 PM87 °FSunny.7 mph51%29.87 "Hg10 mi
7:53 PM88 °FSunny.7 mph48%29.87 "Hg10 mi
6:53 PM90 °FSunny.10 mph42%29.88 "Hg10 mi
5:53 PM91 °FPassing clouds.10 mph44%29.88 "Hg10 mi
4:53 PM91 °FPassing clouds.12 mph44%29.90 "Hg10 mi
3:53 PM91 °FBroken clouds.12 mph47%29.90 "Hg10 mi
2:53 PM91 °FSunny.8 mph47%29.92 "Hg10 mi
1:53 PM91 °FSunny.14 mph47%29.93 "Hg10 mi
12:53 PM87 °FSunny.8 mph55%29.95 "Hg10 mi
11:53 AM85 °FSunny.13 mph61%29.96 "Hg10 mi
10:53 AM84 °FPassing clouds.8 mph65%29.96 "Hg10 mi
9:53 AM82 °FScattered clouds.9 mph70%29.96 "Hg10 mi
8:53 AM81 °FSunny.9 mph72%29.95 "Hg10 mi
7:53 AM79 °FPartly sunny.9 mph77%29.95 "Hg10 mi
6:53 AM79 °FPassing clouds.13 mph77%29.93 "Hg10 mi
5:53 AM79 °FPassing clouds.12 mph77%29.92 "Hg10 mi
4:53 AM79 °FMostly cloudy.12 mph77%29.90 "Hg10 mi
3:53 AM81 °FPassing clouds.9 mph69%29.91 "Hg10 mi
2:53 AM81 °FClear.10 mph67%29.90 "Hg10 mi
1:53 AM83 °FClear.13 mph63%29.92 "Hg10 mi
12:53 AM83 °FClear.8 mph65%29.91 "Hg10 mi
Weather by CustomWeather, © 2015

See weather overviewHow to use our weather pages